Simultaneous Nadir Overpasses (SNOs) Predictions

Prediction of SNOs between GOES-15 and NOAA-20 Satellite Orbit:

Table of predicted SNOs for the next 14.0 days since TLE Epoch: 12/17/2022
Index Date Time (GOES-15) GOES-15 Lat,Lon NOAA-20 Lat,Lon Distance(km) Time Diff (sec)
1 12/17/2022 21:45:49 -0.01,-127.32 0.50,-124.98 266.66 80
2 12/19/2022 10:04:58 0.00,-127.31 0.66,-130.26 335.32 80
3 12/20/2022 09:48:53 0.01,-127.27 -0.32,-125.72 175.99 80
4 12/21/2022 22:08:11 -0.00,-127.13 -0.86,-131.03 443.74 80
5 12/22/2022 21:52:06 -0.01,-127.08 0.12,-126.49 67.03 80
6 12/25/2022 09:52:31 0.01,-127.00 0.05,-127.23 26.05 80
7 12/26/2022 09:36:27 0.01,-126.95 -0.93,-122.70 484.20 80
8 12/27/2022 21:55:44 -0.00,-126.80 -0.24,-128.01 136.61 80
9 12/28/2022 21:39:39 -0.00,-126.75 0.75,-123.47 373.78 80
10 12/30/2022 09:58:48 -0.01,-126.72 0.46,-128.74 229.77 80
